COSMOS 2251 DEB, 35711

Orbit data source: Space-Track

COSMOS 2251 DEB, 35711 is space debris in LEO originally from a launch on Wed, 16 Jun 1993 UTC launched from the Plesetsk Missile And Space Complex (PKMTR). The debris from Iridium 33, an American commercial communications satellite, has been tracked extensively since its accidental collision with the defunct Russian satellite Cosmos 2251 in 2009. This event, occurring at high speed in low Earth orbit (LEO), generated thousands of pieces of space debris, significantly increasing the risk of further collisions. The Iridium 33 debris cloud has impacted space traffic management and orbital debris mitigation strategies, making it a subject of ongoing study in space situational awareness.

Loading next visibility...
Identifier
35711, 1993-036AQG
Orbit
LEO
Country
Flag of CISCIS
Related business
Manufacturer
Unknown
Mission
Spacecraft
Bus & Motor
Unknown
Mass
Unknown
Launch date (UTC)
1993-06-16 (33 years ago)
Launch vehicle
Unknown
Launch site
Plesetsk Missile And Space Complex (PKMTR)
Object type
Payload
Rocket body
Debris
Shape & HBR
Unknown shape, 0.1 m
Radar Cross Section
Small (<0.1 m²)

Expand to show TLE details & history
Last TLE update: 4 days ago

TLE from 4 days ago
0 COSMOS 2251 DEB
1 35711U 93036AQG 26205.58354785  .00000787  00000-0  14749-3 0  9998
2 35711  74.0461 150.7078 0084480 195.6982 164.1566 14.64354487910479
Epoch: 2026-07-24T14:00Z
TLE epoch observation values (Epoch: 2026-07-24T14:00:18.534Z)
Latitude
-0.00001°
Longitude
-1.67752°
Altitude
739.197 km
Speed
7.455 km/s
True Right ascension
10h 02m 49s
True Declination
0° 00' 00"
Sunlit
Object was in daylight at epoch
Visualization orbit readout
Latitude
Unknown
Longitude
Unknown
Altitude
Unknown
Speed
Unknown
Apparent Right ascension
Unknown
Apparent Declination
Unknown
Sunlit
N/A
Visualization observer readout
Local Sidereal Time
07:34:23
Azimuth
Unknown
Elevation
Unknown
Doppler factor
Unknown
Orbital elements
Apogee altitude
736.34 km
Perigee altitude
617.141 km
Semi-major axis
7,054.877 km
Eccentricity
0.00845
Inclination
74.0461°
RAAN
150.7078°
Arg. of periapsis
195.6982°
True anomaly
164.41823°
Mean anomaly
164.1566°
Eccentric anomaly
164.28768°
Mean motion
3.66276 °/min
Orbital period
98.29 mins
BSTAR
0.00014749
Loading maneuver chart data...
Computing Atmospheric mass density...

Documentation

Showing up to 5 results
|